This is the latest recevied weather packets stored in our database for station/object EA1FBN. If no packets are shown the sender has not sent any weather packets the latest 10 day(s).
| Time | Temp. | Humidity | Pressure | Rain* | Wind** | Luminosity | Snow |
|---|---|---|---|---|---|---|---|
| 1777312994 | 16.67° C | 69% | 1014.6 hPa | 0 mm | - | - | - |
| 1777312694 | 16.67° C | 69% | 1014.4 hPa | 0 mm | - | - | - |
| 1777310276 | 17.22° C | 69% | 1014.3 hPa | 0 mm | - | - | - |
| 1777309976 | 17.22° C | 69% | 1014.4 hPa | 0 mm | - | - | - |
| 1777309676 | 17.22° C | 67% | 1014.5 hPa | 0 mm | - | - | - |
| 1777309376 | 17.78° C | 64% | 1014.6 hPa | 0 mm | - | - | - |
| 1777309076 | 18.89° C | 60% | 1014.6 hPa | 0 mm | - | - | - |
| 1777308778 | 20° C | 59% | 1014.4 hPa | 0 mm | - | - | - |
| 1777308476 | 20° C | 57% | 1014.3 hPa | 0 mm | - | - | - |
| 1777308176 | 20° C | 57% | 1014.2 hPa | 0 mm | - | - | - |
| 1777307876 | 20.56° C | 58% | 1014.1 hPa | 0 mm | - | - | - |
| 1777307576 | 20.56° C | 56% | 1014 hPa | 0 mm | - | - | - |
| 1777307276 | 20.56° C | 58% | 1014 hPa | 0 mm | - | - | - |
| 1777306976 | 20.56° C | 57% | 1014.1 hPa | 0 mm | - | - | - |
| 1777306676 | 20.56° C | 57% | 1014 hPa | 0 mm | - | - | - |
| 1777306376 | 20.56° C | 55% | 1014 hPa | 0 mm | - | - | - |
| 1777306076 | 20.56° C | 56% | 1013.9 hPa | 0 mm | - | - | - |
| 1777305776 | 20.56° C | 58% | 1013.8 hPa | 0 mm | - | - | - |
| 1777305476 | 20° C | 58% | 1013.8 hPa | 0 mm | - | - | - |
| 1777305176 | 20.56° C | 58% | 1013.9 hPa | 0 mm | - | - | - |
| 1777304876 | 21.11° C | 58% | 1013.9 hPa | 0 mm | - | - | - |
| 1777304576 | 22.22° C | 54% | 1014.1 hPa | 0 mm | - | - | - |
| 1777304276 | 22.78° C | 52% | 1014 hPa | 0 mm | - | - | - |
| 1777303976 | 22.78° C | 52% | 1013.9 hPa | 0 mm | - | - | - |
| 1777303676 | 22.78° C | 52% | 1013.9 hPa | 0 mm | - | - | - |
* Rain latest hour (hover to see other rain measurements)
** Current wind speed in m/s (hover to see current wind gust speed)